[[{"header":{"parameterUnit":"m.s-1","parameterCategory":2,"la1":30.2991,"la2":30.254,"lo1":-89.0895,"lo2":-89.0444,"dy":0.0017,"dx":0.0017,"nx":28,"ny":28,"refTime":"2023-09-05T21:00:00:Z","depth":"0","parameterNumber":2,"parameterNumberName":"U-component_of_CURRENTS"},"data":[0,0,0,0,0,0,0,0,0,0,0,0,0,0,0,0,0,0,0,0,0,0,0,0,0,0,0,0,0,0,0,0,0,0,0,0,0,0,0,0,0,0,0,0,0,0,0,0,0,0,0,0,0,0,0,0,0,0,0.2675,0.2675,0,0.2705,0.2705,0.2705,0.2697,0.2697,0.2696,0.2696,0.2684,0.2684,0.2684,0,0,0,0,0,0,0,0,0,0,0,0,0,0.2616,0.2617,0.2675,0.2675,0.2676,0.2705,0.2705,0.2705,0.2697,0.2697,0.2696,0.2696,0.2684,0.2684,0.2684,0,0,0,0,0,0,0,0,0,0,0,0,0,0.2641,0.2617,0.2675,0.2677,0.2678,0.2705,0.2705,0.2706,0.2697,0.2697,0.2696,0.2696,0.2684,0.2684,0.2684,0.2696,0,0,0.2684,0.2684,0,0,0,0,0,0,0,0,0.2639,0.2643,0.2676,0.2677,0.2678,0.2699,0.268,0.2701,0.2698,0.2687,0.2696,0.2695,0.2687,0.2687,0.2691,0.2695,0.2695,0.2684,0.2684,0.2684,0.2684,0,0,0,0,0,0,0,0.2638,0.2641,0.2684,0.2677,0.2678,0.2679,0.2682,0.2684,0.2687,0.2688,0.2688,0.2696,0.2687,0.2691,0.269,0.2694,0.2684,0.2684,0.2684,0.2684,0.2741,0.2743,0,0,0,0,0,0,0.2639,0.264,0.2683,0.2685,0.266,0.2681,0.2684,0.2691,0.2688,0.2688,0.2696,0.2695,0.2691,0.269,0.269,0.2735,0.2684,0.2684,0.2684,0.274,0.2742,0.2743,0,0,0,0,0,0,0.2638,0.2643,0.2682,0.2665,0.2671,0.2683,0.2691,0.2692,0.2702,0.2695,0.2694,0.2707,0.2691,0.269,0.2711,0.2733,0.2684,0.2684,0.2738,0.2741,0.2743,0.2805,0,0,0,0,0,0,0.2636,0.2642,0.2648,0.2665,0.2672,0.2713,0.2692,0.2693,0.2709,0.2708,0.2704,0.2702,0.269,0.2711,0.2711,0.2732,0.2684,0.2736,0.2739,0.2742,0.2801,0.2809,0.2816,0,0,0,0,0,0.2634,0.265,0.2648,0.2653,0.2679,0.2714,0.2718,0.2722,0.271,0.2726,0.2725,0.2702,0.2728,0.2713,0.2712,0.2734,0.2735,0.2738,0.2742,0.2798,0.2808,0.2816,0,0,0,0,0,0,0.2629,0.2651,0.2649,0.267,0.2695,0.2714,0.2729,0.273,0.2742,0.2737,0.2723,0.2722,0.2751,0.2736,0.2719,0.276,0.2727,0.2731,0.277,0.2779,0.2787,0.279,0.2684,0,0,0,0,0,0.263,0.2646,0.267,0.2689,0.2702,0.2715,0.2728,0.2734,0.2747,0.2752,0.275,0.275,0.2764,0.2767,0.2775,0.2795,0.2802,0.2809,0.2817,0.2823,0.2827,0.2871,0.2883,0.2754,0.2754,0.2754,0,0,0.2632,0.2649,0.2656,0.2689,0.2704,0.2732,0.2721,0.275,0.277,0.2748,0.2773,0.2779,0.2778,0.2807,0.2817,0.2796,0.2865,0.2827,0.2833,0.2833,0.2876,0.2889,0.29,0.2757,0.2756,0.2756,0,0,0.265,0.2662,0.268,0.2705,0.2736,0.2751,0.2762,0.2787,0.2795,0.2825,0.2818,0.2841,0.2852,0.2862,0.2866,0.2919,0.2908,0.2919,0.2954,0.2998,0.3009,0.3018,0.3051,0.3063,0.2917,0.2917,0.2917,0,0.2652,0.2677,0.2694,0.2722,0.2744,0.2761,0.279,0.2808,0.2836,0.2853,0.284,0.2887,0.2879,0.2924,0.294,0.2936,0.2957,0.2919,0.3008,0.3018,0.3026,0.3058,0.307,0.2921,0.292,0.292,0.292,0,0.2682,0.2704,0.2723,0.276,0.2789,0.2821,0.285,0.2877,0.2888,0.2906,0.2955,0.296,0.2988,0.2991,0.2978,0.304,0.3034,0.3018,0.2984,0.3043,0.3072,0.3084,0.2926,0.2924,0.2923,0.2922,0,0,0.2672,0.2731,0.2735,0.2754,0.281,0.2833,0.2883,0.2933,0.2966,0.2994,0.3043,0.3067,0.3075,0.3081,0.3077,0.3104,0.318,0.3087,0.3088,0.3119,0.328,0.3262,0.3273,0.3184,0.3187,0.3189,0.3278,0,0.2688,0.2736,0.2768,0.2815,0.2841,0.2883,0.2925,0.2971,0.3015,0.3068,0.3091,0.3133,0.3108,0.3127,0.3157,0.3176,0.3213,0.3157,0.3218,0.322,0.3197,0.3287,0.3224,0.3297,0.3289,0.3291,0.3292,0,0.2696,0.2729,0.2775,0.2834,0.285,0.2885,0.2961,0.3003,0.3087,0.3122,0.3184,0.3207,0.3262,0.3226,0.3302,0.3271,0.3284,0.3292,0.3295,0.3263,0.3225,0.3236,0.3318,0.3242,0.331,0.3309,0.3308,0,0.2662,0.2728,0.2762,0.2783,0.2858,0.2889,0.2934,0.3018,0.3064,0.3166,0.3217,0.3287,0.3329,0.3364,0.3389,0.3354,0.3472,0.3423,0.3422,0.3421,0.337,0.336,0.3383,0.3486,0.3485,0.3485,0.3485,0,0.2658,0.2683,0.2746,0.2763,0.2805,0.2867,0.2929,0.2991,0.3091,0.3147,0.3238,0.3301,0.3368,0.3439,0.344,0.3486,0.3522,0.3454,0.3455,0.339,0.3382,0.3312,0.3269,0.3488,0.3488,0.3487,0.3486,0,0.2617,0.266,0.2695,0.2766,0.2788,0.2816,0.2915,0.2959,0.3068,0.3153,0.3188,0.3335,0.343,0.3499,0.3571,0.3555,0.3503,0.3595,0.3514,0.3503,0.3392,0.3354,0.3236,0.3131,0.3597,0.3597,0.3598,0,0.2605,0.2617,0.2675,0.2689,0.2723,0.2779,0.2813,0.2928,0.2986,0.3156,0.319,0.3341,0.3442,0.3582,0.3603,0.3652,0.3518,0.3588,0.3498,0.3404,0.3363,0.3194,0.31,0.346,0.3459,0.3458,0.3458,0,0.2576,0.259,0.2615,0.2639,0.2671,0.271,0.2778,0.2821,0.2949,0.3036,0.3168,0.3277,0.3462,0.3517,0.3612,0.3615,0.3428,0.3571,0.3503,0.3292,0.3081,0.2974,0.3375,0.3451,0.3452,0.3452,0.3452,0.3453,0.2546,0.2543,0.2563,0.2583,0.2609,0.2629,0.2634,0.2719,0.2794,0.2894,0.306,0.3183,0.3364,0.3509,0.3491,0.345,0.3379,0.3362,0.3337,0.3183,0.3035,0.342,0.3473,0.3474,0.3474,0.3475,0.3475,0,0.2492,0.2492,0.2506,0.251,0.2496,0.2544,0.2589,0.2578,0.2617,0.2756,0.2867,0.3061,0.3168,0.3274,0.3357,0.3259,0.3069,0.3164,0.2925,0.2852,0.3247,0.3197,0.3156,0.3156,0.3156,0.3156,0.3157,0.3157,0.246,0.2438,0.244,0.2394,0.2394,0.2346,0.2348,0.2356,0.2429,0.2511,0.2619,0.2761,0.3045,0.3209,0.3183,0.3102,0.2837,0.2735,0.2661,0.2982,0.2998,0.3012,0.2955,0.2864,0.2864,0.216,0.2155,0.2152]},{"header":{"parameterUnit":"m.s-1","parameterCategory":2,"la1":30.2991,"la2":30.254,"lo1":-89.0895,"lo2":-89.0444,"dy":0.0017,"dx":0.0017,"nx":28,"ny":28,"refTime":"2023-09-05T21:00:00:Z","depth":"0","parameterNumber":3,"parameterNumberName":"V-component_of_CURRENTS"},"data":[0,0,0,0,0,0,0,0,0,0,0,0,0,0,0,0,0,0,0,0,0,0,0,0,0,0,0,0,0,0,0,0,0,0,0,0,0,0,0,0,0,0,0,0,0,0,0,0,0,0,0,0,0,0,0,0,0,0,-0.0437,-0.0438,0,-0.0493,-0.0494,-0.0495,-0.0527,-0.0527,-0.0527,-0.0527,-0.0612,-0.0614,-0.0616,0,0,0,0,0,0,0,0,0,0,0,0,0,-0.0416,-0.0416,-0.0437,-0.0438,-0.0439,-0.0493,-0.0494,-0.0495,-0.0527,-0.0527,-0.0527,-0.0527,-0.0611,-0.0614,-0.0617,0,0,0,0,0,0,0,0,0,0,0,0,0,-0.0445,-0.0416,-0.0437,-0.046,-0.0462,-0.0493,-0.0494,-0.0495,-0.0527,-0.0527,-0.0527,-0.0527,-0.061,-0.0614,-0.0617,-0.0639,0,0,-0.0628,-0.0629,0,0,0,0,0,0,0,0,-0.0444,-0.0446,-0.0456,-0.0458,-0.0461,-0.0501,-0.0517,-0.0544,-0.0527,-0.0504,-0.0527,-0.0527,-0.0577,-0.0583,-0.0595,-0.0643,-0.0647,-0.0628,-0.063,-0.0631,-0.0632,0,0,0,0,0,0,0,-0.0442,-0.0445,-0.0461,-0.0457,-0.046,-0.0487,-0.049,-0.0523,-0.0542,-0.0506,-0.0508,-0.0512,-0.0578,-0.0592,-0.0598,-0.0648,-0.0628,-0.0631,-0.0633,-0.0634,-0.0718,-0.0719,0,0,0,0,0,0,-0.0428,-0.0442,-0.0459,-0.0463,-0.045,-0.0487,-0.0491,-0.049,-0.0541,-0.0548,-0.0512,-0.0513,-0.0586,-0.0594,-0.0601,-0.062,-0.0631,-0.0635,-0.0637,-0.0718,-0.0718,-0.0719,0,0,0,0,0,0,-0.0427,-0.0429,-0.0457,-0.0453,-0.0458,-0.0486,-0.0486,-0.0491,-0.0503,-0.0544,-0.0552,-0.0517,-0.0586,-0.0596,-0.0629,-0.0624,-0.0636,-0.0639,-0.0718,-0.0718,-0.0719,-0.0665,0,0,0,0,0,0,-0.0427,-0.0428,-0.0427,-0.0452,-0.0458,-0.0467,-0.0486,-0.0492,-0.0504,-0.0507,-0.0552,-0.056,-0.0587,-0.0624,-0.0632,-0.0629,-0.0642,-0.0718,-0.0718,-0.0718,-0.0666,-0.0663,-0.066,0,0,0,0,0,-0.0426,-0.0419,-0.0427,-0.0429,-0.0453,-0.0466,-0.0472,-0.0494,-0.0504,-0.0506,-0.054,-0.0558,-0.0632,-0.0627,-0.0637,-0.0634,-0.0718,-0.0718,-0.0718,-0.0667,-0.0664,-0.066,0,0,0,0,0,0,-0.0414,-0.0422,-0.0431,-0.0429,-0.0443,-0.0471,-0.0475,-0.0491,-0.052,-0.0522,-0.0564,-0.0575,-0.0601,-0.0628,-0.0621,-0.066,-0.0677,-0.0679,-0.0634,-0.0631,-0.0628,-0.0601,-0.0645,0,0,0,0,0,-0.0409,-0.0403,-0.042,-0.0419,-0.0424,-0.045,-0.0459,-0.0471,-0.0497,-0.051,-0.0541,-0.0578,-0.0611,-0.0628,-0.066,-0.0684,-0.0698,-0.0689,-0.0686,-0.0683,-0.0669,-0.0699,-0.0696,-0.072,-0.072,-0.072,0,0,-0.0405,-0.0409,-0.0406,-0.0416,-0.043,-0.0426,-0.0456,-0.0462,-0.0461,-0.0515,-0.0529,-0.0569,-0.0616,-0.064,-0.0654,-0.0661,-0.0682,-0.0684,-0.0681,-0.0668,-0.0699,-0.0696,-0.0694,-0.072,-0.072,-0.072,0,0,-0.0384,-0.0395,-0.0379,-0.0386,-0.0396,-0.041,-0.0408,-0.0432,-0.0445,-0.0466,-0.0504,-0.0538,-0.0589,-0.0618,-0.0641,-0.0642,-0.0666,-0.0656,-0.0619,-0.0648,-0.0645,-0.0644,-0.0646,-0.0645,-0.0654,-0.0654,-0.0653,0,-0.0379,-0.0359,-0.0379,-0.0366,-0.0362,-0.0397,-0.0378,-0.0399,-0.0431,-0.0437,-0.0461,-0.0532,-0.0575,-0.0602,-0.0605,-0.0633,-0.0646,-0.0626,-0.0642,-0.0641,-0.064,-0.0643,-0.0643,-0.0651,-0.0651,-0.0652,-0.0652,0,-0.034,-0.0329,-0.0321,-0.031,-0.0313,-0.0303,-0.0325,-0.0334,-0.0357,-0.0379,-0.0411,-0.0476,-0.0512,-0.0539,-0.0576,-0.0592,-0.0601,-0.0634,-0.0645,-0.0634,-0.0638,-0.0639,-0.0647,-0.0648,-0.0649,-0.065,0,0,-0.0303,-0.0294,-0.0286,-0.0268,-0.0277,-0.0268,-0.0271,-0.0275,-0.0264,-0.0319,-0.0313,-0.0392,-0.0426,-0.0454,-0.0508,-0.0542,-0.0554,-0.0582,-0.0585,-0.0572,-0.0598,-0.0574,-0.0572,-0.0593,-0.0593,-0.0593,-0.0598,0,-0.0261,-0.0215,-0.0225,-0.0181,-0.0159,-0.0186,-0.0178,-0.0191,-0.0217,-0.0225,-0.0299,-0.0321,-0.0394,-0.041,-0.0457,-0.0529,-0.0555,-0.0548,-0.0621,-0.0622,-0.0593,-0.0572,-0.053,-0.0529,-0.0599,-0.0599,-0.0599,0,-0.0205,-0.018,-0.0128,-0.0101,-0.0092,-0.0074,-0.0054,-0.0052,-0.0085,-0.0105,-0.015,-0.0211,-0.0268,-0.0335,-0.0439,-0.0431,-0.0503,-0.0565,-0.0567,-0.0561,-0.0598,-0.0556,-0.0527,-0.0701,-0.06,-0.06,-0.06,0,-0.0142,-0.0107,-0.0057,-0.0048,-0.0029,-0.0007,0.0003,-0.0011,0.0011,-0.0026,-0.0017,-0.0109,-0.0133,-0.025,-0.0377,-0.041,-0.0481,-0.0545,-0.0586,-0.0584,-0.0569,-0.0566,-0.0706,-0.061,-0.061,-0.061,-0.061,0,-0.0083,-0.0042,-0.0019,0.0012,0.0079,0.0065,0.0126,0.0119,0.0125,0.0169,0.0056,0.0075,-0.0116,-0.0187,-0.0326,-0.0434,-0.0439,-0.0561,-0.0583,-0.0548,-0.0543,-0.0711,-0.0808,-0.061,-0.061,-0.061,-0.061,0,-0.0023,-0.0011,0.0053,0.0093,0.0113,0.0163,0.0218,0.026,0.0252,0.0306,0.0302,0.0226,0.0143,-0.0035,-0.0201,-0.0339,-0.0546,-0.0506,-0.0435,-0.0449,-0.0666,-0.076,-0.0887,-0.0956,-0.0559,-0.0559,-0.0558,0,0.0005,0.0048,0.0123,0.0171,0.0194,0.0261,0.0313,0.0328,0.0386,0.0414,0.046,0.0392,0.0394,0.017,-0.0094,-0.0307,-0.0489,-0.043,-0.0499,-0.0655,-0.0778,-0.0851,-0.0907,-0.0456,-0.0454,-0.0453,-0.0452,0,0.0066,0.01,0.0159,0.026,0.0329,0.0409,0.049,0.0562,0.0596,0.0664,0.0761,0.0769,0.055,0.0359,0.0037,-0.0133,-0.0536,-0.0415,-0.0607,-0.0722,-0.0781,-0.0864,-0.0466,-0.0443,-0.0444,-0.0444,-0.0445,-0.0445,0.0116,0.0174,0.0261,0.0361,0.0447,0.0567,0.0662,0.0769,0.0908,0.1048,0.1023,0.1105,0.0756,0.0337,0.0057,-0.0437,-0.0468,-0.0596,-0.0697,-0.0758,-0.0829,-0.0389,-0.0378,-0.0378,-0.0379,-0.0379,-0.038,0,0.0183,0.0257,0.0351,0.0485,0.0605,0.0628,0.0792,0.0912,0.1121,0.1257,0.1378,0.1298,0.0874,0.0393,-0.0281,-0.0657,-0.0813,-0.0867,-0.0991,-0.1037,-0.0668,-0.0669,-0.0683,-0.0683,-0.0683,-0.0682,-0.0682,-0.0682,0.0224,0.0339,0.0397,0.0609,0.0705,0.0879,0.099,0.1179,0.1328,0.1565,0.166,0.1679,0.1322,0.0088,-0.0785,-0.0994,-0.1265,-0.1304,-0.1466,-0.1253,-0.1237,-0.1222,-0.1249,-0.1384,-0.1385,-0.1781,-0.1785,-0.1788]}],[{"header":{"parameterUnit":"m.s-1","parameterCategory":2,"la1":30.2991,"la2":30.254,"lo1":-89.0895,"lo2":-89.0444,"dy":0.0017,"dx":0.0017,"nx":28,"ny":28,"refTime":"2023-09-05T21:00:00:Z","depth":"2","parameterNumber":2,"parameterNumberName":"U-component_of_CURRENTS"},"data":[0,0,0,0,0,0,0,0,0,0,0,0,0,0,0,0,0,0,0,0,0,0,0,0,0,0,0,0,0,0,0,0,0,0,0,0,0,0,0,0,0,0,0,0,0,0,0,0,0,0,0,0,0,0,0,0,0,0,0.2286,0.2287,0,0.2327,0.2328,0.2328,0.2336,0.2336,0.2336,0.2336,0.2357,0.2357,0.2358,0,0,0,0,0,0,0,0,0,0,0,0,0,0.2233,0.2234,0.2286,0.2287,0.2287,0.2327,0.2328,0.2328,0.2336,0.2336,0.2336,0.2336,0.2356,0.2357,0.2358,0,0,0,0,0,0,0,0,0,0,0,0,0,0.2261,0.2234,0.2286,0.2298,0.23,0.2327,0.2328,0.2328,0.2336,0.2336,0.2336,0.2335,0.2356,0.2357,0.2358,0.2367,0,0,0.2361,0.2361,0,0,0,0,0,0,0,0,0.226,0.2263,0.2295,0.2297,0.2299,0.2329,0.2317,0.2341,0.2336,0.232,0.2336,0.2335,0.2347,0.2349,0.2354,0.2368,0.2369,0.2361,0.2362,0.2362,0.2362,0,0,0,0,0,0,0,0.2258,0.2261,0.23,0.2296,0.2299,0.2308,0.2312,0.2322,0.2331,0.2321,0.2322,0.2331,0.2348,0.2353,0.2354,0.237,0.2361,0.2362,0.2363,0.2363,0.2428,0.2429,0,0,0,0,0,0,0.2257,0.2259,0.2299,0.2301,0.2281,0.231,0.2313,0.2317,0.2332,0.2335,0.2331,0.2331,0.2351,0.2353,0.2355,0.2413,0.2362,0.2363,0.2364,0.2426,0.2428,0.2429,0,0,0,0,0,0,0.2255,0.226,0.2297,0.2283,0.2289,0.2311,0.2315,0.2318,0.2337,0.234,0.2342,0.2348,0.2351,0.2354,0.2381,0.2412,0.2364,0.2364,0.2425,0.2427,0.2428,0.2499,0,0,0,0,0,0,0.2254,0.2259,0.2274,0.2283,0.229,0.2324,0.2316,0.2319,0.2343,0.2344,0.2356,0.2357,0.2351,0.2379,0.2382,0.2412,0.2365,0.2424,0.2426,0.2428,0.2495,0.2503,0.2509,0,0,0,0,0,0.2251,0.2271,0.2274,0.228,0.2306,0.2325,0.2329,0.2342,0.2344,0.2357,0.2368,0.2357,0.2394,0.2381,0.2384,0.2415,0.2423,0.2425,0.2428,0.2492,0.2501,0.2509,0,0,0,0,0,0,0.2255,0.2274,0.2278,0.2302,0.2317,0.2327,0.2349,0.2353,0.2372,0.238,0.2374,0.2376,0.2414,0.2402,0.2388,0.2439,0.2406,0.2409,0.2454,0.2462,0.2469,0.2472,0.2366,0,0,0,0,0,0.2263,0.2279,0.2297,0.2314,0.2328,0.2341,0.2355,0.2364,0.2378,0.2387,0.2394,0.2405,0.2424,0.2433,0.2446,0.2472,0.2472,0.2492,0.25,0.2506,0.2509,0.2538,0.2548,0.2437,0.2437,0.2437,0,0,0.2265,0.228,0.2288,0.2316,0.2331,0.2354,0.2349,0.2378,0.2396,0.2387,0.242,0.2435,0.2438,0.2473,0.2488,0.2468,0.254,0.2509,0.2514,0.2515,0.2541,0.2552,0.2562,0.2439,0.2439,0.2438,0,0,0.2275,0.2296,0.2315,0.2333,0.2366,0.2378,0.239,0.2414,0.2428,0.2465,0.2463,0.2495,0.2521,0.2528,0.2536,0.2587,0.2581,0.2593,0.2629,0.2658,0.2667,0.2675,0.2703,0.2713,0.2592,0.2592,0.2592,0,0.2283,0.2306,0.2324,0.2349,0.2371,0.239,0.2417,0.2434,0.2462,0.2485,0.2486,0.2546,0.2548,0.2588,0.2608,0.2604,0.262,0.2599,0.2668,0.2676,0.2683,0.2709,0.2719,0.2596,0.2595,0.2595,0.2594,0,0.2304,0.233,0.2345,0.2381,0.2407,0.2435,0.2463,0.2496,0.2524,0.2543,0.2603,0.2615,0.2649,0.2658,0.2652,0.2705,0.2701,0.2679,0.2648,0.2699,0.2722,0.2732,0.2601,0.26,0.2598,0.2598,0,0,0.2293,0.2351,0.2354,0.2373,0.243,0.2443,0.2498,0.2547,0.2581,0.2625,0.267,0.2715,0.2732,0.274,0.2739,0.276,0.2828,0.2747,0.2747,0.2777,0.2902,0.2882,0.289,0.2826,0.2828,0.2829,0.2902,0,0.2306,0.2346,0.2383,0.242,0.2443,0.2493,0.2532,0.2579,0.2631,0.2678,0.2715,0.2755,0.2757,0.278,0.2811,0.2825,0.2855,0.2811,0.2844,0.2845,0.2824,0.29,0.2685,0.2731,0.2911,0.2913,0.2914,0,0.231,0.2337,0.2378,0.2432,0.245,0.2485,0.2562,0.2602,0.2682,0.2726,0.2795,0.2814,0.287,0.2849,0.2925,0.2902,0.2914,0.2917,0.292,0.2881,0.2843,0.2706,0.2741,0.2929,0.2928,0.2927,0.2926,0,0.2269,0.2329,0.2359,0.2378,0.2448,0.2491,0.2541,0.2624,0.267,0.2759,0.2808,0.2875,0.2921,0.2951,0.2987,0.2961,0.3059,0.3015,0.3009,0.3007,0.2819,0.2798,0.3062,0.3062,0.3062,0.3062,0.3062,0,0.2258,0.228,0.2343,0.2359,0.2397,0.2464,0.2531,0.2596,0.2695,0.2745,0.2826,0.2878,0.2951,0.3012,0.3019,0.3067,0.3095,0.3037,0.3033,0.2839,0.282,0.2976,0.2965,0.3065,0.3064,0.3063,0.3063,0,0.2207,0.2251,0.2284,0.2358,0.2381,0.241,0.2523,0.2566,0.2677,0.2751,0.278,0.2912,0.3001,0.3063,0.3125,0.3117,0.3142,0.3142,0.2918,0.2887,0.3059,0.305,0.3139,0.3139,0.3139,0.3139,0.3139,0,0.2188,0.2199,0.2263,0.2275,0.2317,0.2377,0.2415,0.2541,0.2598,0.2754,0.2779,0.2913,0.2984,0.3107,0.3121,0.3158,0.3174,0.2958,0.2863,0.3084,0.3071,0.3063,0.3054,0.2641,0.2637,0.2634,0.2631,0,0.2149,0.2175,0.22,0.2223,0.2262,0.2295,0.2375,0.2413,0.2549,0.2625,0.2734,0.2809,0.2963,0.293,0.3009,0.2984,0.2937,0.2894,0.3185,0.2665,0.2623,0.2607,0.2614,0.2602,0.2605,0.2607,0.2608,0.2609,0.212,0.2122,0.2152,0.2159,0.2191,0.2204,0.2206,0.2295,0.2362,0.2448,0.2595,0.2648,0.2732,0.276,0.2696,0.266,0.285,0.2703,0.2709,0.2719,0.2659,0.262,0.2587,0.259,0.2592,0.2595,0.2596,0,0.2054,0.2073,0.2084,0.2085,0.2064,0.2123,0.2156,0.2138,0.2164,0.2298,0.2384,0.2264,0.2287,0.2356,0.2279,0.2305,0.2235,0.219,0.2067,0.2102,0.2132,0.2035,0.1801,0.1797,0.1794,0.1792,0,0,0.2041,0.2013,0.2007,0.1946,0.1951,0.191,0.1904,0.1892,0.1959,0.1968,0.2004,0.2208,0.2327,0.2031,0.2014,0.1892,0.1968,0.1821,0.2475,0.2369,0.2394,0.2463,0.236,0,0,0,0,0]},{"header":{"parameterUnit":"m.s-1","parameterCategory":2,"la1":30.2991,"la2":30.254,"lo1":-89.0895,"lo2":-89.0444,"dy":0.0017,"dx":0.0017,"nx":28,"ny":28,"refTime":"2023-09-05T21:00:00:Z","depth":"2","parameterNumber":3,"parameterNumberName":"V-component_of_CURRENTS"},"data":[0,0,0,0,0,0,0,0,0,0,0,0,0,0,0,0,0,0,0,0,0,0,0,0,0,0,0,0,0,0,0,0,0,0,0,0,0,0,0,0,0,0,0,0,0,0,0,0,0,0,0,0,0,0,0,0,0,0,0.0047,0.0046,0,-0.0008,-0.0009,-0.0009,-0.0058,-0.0058,-0.0059,-0.0059,-0.0143,-0.0145,-0.0147,0,0,0,0,0,0,0,0,0,0,0,0,0,0.0068,0.0068,0.0047,0.0046,0.0045,-0.0008,-0.0009,-0.0009,-0.0058,-0.0058,-0.0059,-0.006,-0.0143,-0.0145,-0.0147,0,0,0,0,0,0,0,0,0,0,0,0,0,0.0041,0.0068,0.0047,0.0015,0.0011,-0.0008,-0.0009,-0.001,-0.0058,-0.0058,-0.0059,-0.006,-0.0142,-0.0145,-0.0147,-0.0145,0,0,-0.0155,-0.0156,0,0,0,0,0,0,0,0,0.0042,0.004,0.002,0.0017,0.0013,-0.0027,-0.0032,-0.0057,-0.0057,-0.0031,-0.006,-0.0061,-0.0107,-0.0112,-0.012,-0.0149,-0.0153,-0.0155,-0.0157,-0.0158,-0.0158,0,0,0,0,0,0,0,0.0044,0.0042,0.0025,0.0019,0.0015,-0.0012,-0.0016,-0.0037,-0.0064,-0.0034,-0.0037,-0.0043,-0.0109,-0.0117,-0.0122,-0.0154,-0.0155,-0.0157,-0.0159,-0.016,-0.0202,-0.0202,0,0,0,0,0,0,0.0054,0.0044,0.0027,0.0024,0.0025,-0.0011,-0.0016,-0.0013,-0.0063,-0.0071,-0.0043,-0.0045,-0.0112,-0.0119,-0.0125,-0.0136,-0.0158,-0.016,-0.0162,-0.0203,-0.0202,-0.0202,0,0,0,0,0,0,0.0055,0.0053,0.0029,0.0032,0.0027,-0.001,-0.0007,-0.0014,-0.0028,-0.007,-0.0079,-0.005,-0.0113,-0.0122,-0.0144,-0.0139,-0.0161,-0.0164,-0.0203,-0.0203,-0.0202,-0.0151,0,0,0,0,0,0,0.0056,0.0054,0.0055,0.0033,0.0027,0.0026,-0.0006,-0.0014,-0.003,-0.0034,-0.0079,-0.0087,-0.0115,-0.014,-0.0146,-0.0143,-0.0166,-0.0204,-0.0203,-0.0202,-0.0153,-0.0149,-0.0145,0,0,0,0,0,0.0057,0.007,0.0056,0.0054,0.0032,0.0027,0.0022,-0.0008,-0.0029,-0.0026,-0.006,-0.0086,-0.014,-0.0141,-0.0149,-0.0147,-0.0204,-0.0203,-0.0202,-0.0155,-0.015,-0.0145,0,0,0,0,0,0,0.0083,0.0066,0.005,0.0057,0.0044,0.0018,0.0017,-0.0005,-0.0029,-0.0038,-0.0081,-0.009,-0.011,-0.0132,-0.0132,-0.0157,-0.0176,-0.0177,-0.0138,-0.0133,-0.0129,-0.0108,-0.0168,0,0,0,0,0,0.0089,0.0095,0.0072,0.008,0.0074,0.0045,0.0036,0.0017,-0.0007,-0.0019,-0.0051,-0.0084,-0.011,-0.0124,-0.015,-0.016,-0.0185,-0.0164,-0.016,-0.0156,-0.0144,-0.0181,-0.0179,-0.0199,-0.0199,-0.0199,0,0,0.0102,0.0093,0.0096,0.0086,0.0072,0.0075,0.0038,0.0032,0.0033,-0.0024,-0.0033,-0.0072,-0.011,-0.0125,-0.0135,-0.0143,-0.0163,-0.0155,-0.0151,-0.0141,-0.0179,-0.0178,-0.0176,-0.0198,-0.0198,-0.0199,0,0,0.0139,0.0124,0.014,0.0132,0.0114,0.0098,0.0098,0.0071,0.0057,0.0041,-0.0,-0.0033,-0.0071,-0.0096,-0.0115,-0.0101,-0.0142,-0.0113,-0.0074,-0.011,-0.0108,-0.0107,-0.0136,-0.0138,-0.0109,-0.0109,-0.0108,0,0.0152,0.0168,0.0145,0.0156,0.0154,0.0112,0.0128,0.0114,0.0082,0.0075,0.0045,-0.0016,-0.0056,-0.007,-0.0071,-0.0092,-0.0117,-0.009,-0.0104,-0.0104,-0.0104,-0.0133,-0.0136,-0.0106,-0.0106,-0.0107,-0.0107,0,0.0195,0.0205,0.0216,0.0217,0.0215,0.0221,0.0198,0.0192,0.0161,0.0136,0.0108,0.0051,0.0016,-0.0007,-0.0039,-0.0053,-0.0072,-0.0097,-0.0115,-0.0099,-0.0131,-0.0134,-0.0102,-0.0103,-0.0104,-0.0105,0,0,0.0231,0.0244,0.0246,0.0262,0.0245,0.0254,0.026,0.0254,0.0262,0.021,0.0211,0.0145,0.0103,0.0081,0.0033,-0.0003,-0.0036,-0.0046,-0.0049,-0.007,-0.011,-0.0123,-0.0129,-0.0066,-0.0066,-0.0066,-0.0132,0,0.0268,0.0314,0.0301,0.0342,0.0365,0.0334,0.0349,0.0337,0.0309,0.03,0.0232,0.0208,0.0142,0.0121,0.0075,-0.0007,-0.0043,-0.0015,-0.0125,-0.0128,-0.0139,-0.0133,-0.0103,-0.016,-0.0136,-0.0137,-0.0138,0,0.0311,0.0338,0.0388,0.0418,0.0423,0.0435,0.0451,0.0458,0.0431,0.0409,0.0365,0.0307,0.0249,0.0187,0.0063,0.0083,-0.0004,-0.0072,-0.0077,-0.0106,-0.0148,-0.0173,-0.0168,-0.0145,-0.0144,-0.0143,-0.0143,0,0.036,0.0397,0.0445,0.0452,0.0476,0.0491,0.0497,0.0487,0.0512,0.0476,0.0479,0.039,0.0353,0.0233,0.0083,0.0071,-0.0054,-0.0091,-0.018,-0.0182,-0.0186,-0.0187,-0.0172,-0.0172,-0.0172,-0.0172,-0.0172,0,0.0407,0.0442,0.0473,0.0498,0.0559,0.0548,0.0597,0.0593,0.0599,0.0635,0.0539,0.0545,0.0361,0.0264,0.0119,-0.0037,-0.003,-0.0166,-0.0198,-0.0167,-0.0166,-0.0177,-0.0176,-0.0174,-0.0174,-0.0173,-0.0173,0,0.0452,0.047,0.0529,0.0566,0.0587,0.0628,0.0676,0.071,0.0704,0.0749,0.0743,0.066,0.0529,0.0346,0.015,0.002,-0.0137,-0.0193,-0.0141,-0.0165,-0.0249,-0.0246,-0.0298,-0.0299,-0.03,-0.0301,-0.0301,0,0.048,0.0518,0.0588,0.0631,0.0647,0.0706,0.075,0.0765,0.0811,0.0825,0.0859,0.075,0.0694,0.0407,0.0147,-0.0099,-0.0134,-0.023,-0.0253,-0.0236,-0.0262,-0.0257,-0.0252,-0.0241,-0.0242,-0.0242,-0.0242,0,0.053,0.0552,0.0603,0.0697,0.0752,0.0831,0.0893,0.0954,0.0979,0.1011,0.104,0.0996,0.0728,0.0482,0.0141,-0.0026,-0.0192,-0.0239,-0.0236,-0.021,-0.0187,-0.0211,-0.0207,-0.0242,-0.0242,-0.0242,-0.0242,-0.0242,0.0563,0.061,0.0678,0.0767,0.0843,0.0945,0.1014,0.1083,0.1171,0.1227,0.1183,0.1125,0.0844,0.0415,0.0115,-0.02,-0.0189,-0.0293,-0.0291,-0.0289,-0.0267,-0.0246,-0.0308,-0.0308,-0.0308,-0.0309,-0.0309,0,0.061,0.0658,0.0743,0.0849,0.0938,0.0974,0.1106,0.117,0.1274,0.1317,0.1331,0.1078,0.0801,0.0475,0.0013,-0.0261,-0.0285,-0.0347,-0.0313,-0.031,-0.0308,-0.0286,-0.0332,-0.0333,-0.0334,-0.0335,0,0,0.0627,0.0712,0.0759,0.0912,0.0988,0.1115,0.1197,0.129,0.1356,0.1392,0.1365,0.1301,0.0912,0.0578,0.0198,-0.0068,-0.0127,-0.0122,-0.0071,0.0017,0.0022,-0.0243,-0.0202,0,0,0,0,0]}],[{"header":{"parameterUnit":"m.s-1","parameterCategory":2,"la1":30.2991,"la2":30.254,"lo1":-89.0895,"lo2":-89.0444,"dy":0.0017,"dx":0.0017,"nx":28,"ny":28,"refTime":"2023-09-05T21:00:00:Z","depth":"4","parameterNumber":2,"parameterNumberName":"U-component_of_CURRENTS"},"data":[0,0,0,0,0,0,0,0,0,0,0,0,0,0,0,0,0,0,0,0,0,0,0,0,0,0,0,0,0,0,0,0,0,0,0,0,0,0,0,0,0,0,0,0,0,0,0,0,0,0,0,0,0,0,0,0,0,0,0.1361,0.1362,0,0.1446,0.1446,0.1447,0.1512,0.1513,0.1513,0.1514,0.1596,0.1597,0.1599,0,0,0,0,0,0,0,0,0,0,0,0,0,0.1245,0.1246,0.1361,0.1362,0.1363,0.1445,0.1446,0.1447,0.1511,0.1513,0.1514,0.1515,0.1596,0.1597,0.1599,0,0,0,0,0,0,0,0,0,0,0,0,0,0.1306,0.1247,0.136,0.1407,0.1413,0.1445,0.1446,0.1447,0.1511,0.1513,0.1514,0.1515,0.1595,0.1597,0.1599,0.1586,0,0,0.1605,0.1606,0,0,0,0,0,0,0,0,0.1302,0.131,0.1399,0.1404,0.141,0.1472,0.1436,0.1495,0.1511,0.1471,0.1514,0.1516,0.1555,0.1561,0.157,0.159,0.1593,0.1606,0.1607,0.1608,0.1608,0,0,0,0,0,0,0,0.1298,0.1306,0.1391,0.1401,0.1407,0.1421,0.1431,0.1447,0.1502,0.1474,0.148,0.1494,0.1558,0.1567,0.1572,0.1594,0.1605,0.1607,0.1609,0.1609,0.1721,0.1723,0,0,0,0,0,0,0.1293,0.1302,0.1389,0.1394,0.1362,0.1422,0.1433,0.1448,0.1502,0.1513,0.1492,0.1496,0.1563,0.1569,0.1575,0.1659,0.1608,0.161,0.1611,0.1719,0.1722,0.1723,0,0,0,0,0,0,0.129,0.13,0.1385,0.1352,0.1365,0.1423,0.144,0.145,0.1491,0.1517,0.1527,0.1528,0.1564,0.1572,0.1621,0.1659,0.1611,0.1612,0.1717,0.172,0.1722,0.1766,0,0,0,0,0,0,0.1286,0.1298,0.132,0.1352,0.1367,0.1425,0.1439,0.145,0.1497,0.1504,0.155,0.1557,0.1566,0.1618,0.1623,0.1661,0.1614,0.1715,0.1719,0.1722,0.1762,0.1769,0.1776,0,0,0,0,0,0.1282,0.1302,0.132,0.1332,0.1391,0.1427,0.1436,0.1479,0.1498,0.152,0.1555,0.1557,0.1643,0.1621,0.1626,0.1666,0.1714,0.1718,0.1721,0.1759,0.1768,0.1776,0,0,0,0,0,0,0.1263,0.1312,0.1332,0.1368,0.1405,0.1439,0.147,0.1493,0.1537,0.1555,0.1572,0.1582,0.1643,0.1646,0.1621,0.171,0.1681,0.1686,0.1708,0.1717,0.1723,0.1726,0.1616,0,0,0,0,0,0.1268,0.1301,0.1342,0.1374,0.1396,0.1436,0.1462,0.1493,0.153,0.1552,0.1583,0.1621,0.1657,0.168,0.171,0.1749,0.1758,0.1782,0.1788,0.1794,0.1802,0.1845,0.1856,0.1736,0.1736,0.1736,0,0,0.1266,0.1303,0.132,0.1374,0.1408,0.1442,0.1456,0.1507,0.1543,0.1552,0.1617,0.1647,0.1674,0.1728,0.1755,0.1738,0.1834,0.1799,0.1804,0.1809,0.185,0.1862,0.1872,0.1739,0.1738,0.1738,0,0,0.1278,0.1318,0.1348,0.1383,0.1445,0.1468,0.1488,0.154,0.1576,0.1632,0.1656,0.1707,0.1757,0.1787,0.1805,0.1865,0.1871,0.1883,0.1919,0.196,0.197,0.1979,0.2007,0.2018,0.1884,0.1884,0.1884,0,0.1279,0.1324,0.1362,0.1401,0.1437,0.1481,0.1519,0.1556,0.1619,0.1655,0.1664,0.1764,0.1785,0.1851,0.1878,0.1881,0.1903,0.1882,0.1969,0.1977,0.1986,0.2013,0.2024,0.1887,0.1886,0.1886,0.1886,0,0.1306,0.1353,0.1376,0.144,0.1479,0.1523,0.1574,0.1626,0.1674,0.1709,0.1797,0.1831,0.1893,0.1909,0.1913,0.199,0.1986,0.1973,0.1944,0.2,0.2025,0.2036,0.189,0.1889,0.1889,0.1888,0,0,0.1281,0.1376,0.1388,0.1424,0.1509,0.1536,0.161,0.1681,0.1732,0.18,0.1869,0.1937,0.1968,0.1991,0.201,0.2043,0.2118,0.2039,0.204,0.2061,0.2213,0.2084,0.2084,0.2125,0.2127,0.2129,0.2207,0,0.1297,0.1366,0.1417,0.1483,0.152,0.1592,0.1649,0.1722,0.1787,0.1861,0.1921,0.199,0.1994,0.2035,0.2075,0.2113,0.2151,0.2098,0.2161,0.2163,0.2036,0.2093,0.2136,0.2215,0.2217,0.2219,0.2221,0,0.1305,0.1354,0.1422,0.1509,0.1533,0.1584,0.1691,0.175,0.1861,0.1914,0.2002,0.2048,0.2135,0.2116,0.2218,0.219,0.2213,0.2227,0.223,0.2102,0.2055,0.2148,0.2241,0.2239,0.2238,0.2236,0.2235,0,0.1257,0.1354,0.1409,0.1441,0.1546,0.1604,0.1668,0.1777,0.1842,0.1961,0.2025,0.2117,0.2189,0.2236,0.229,0.2267,0.2382,0.2346,0.225,0.2241,0.2313,0.2303,0.2411,0.2411,0.241,0.241,0.241,0,0.1241,0.1286,0.1397,0.1426,0.1499,0.1585,0.1676,0.1754,0.1878,0.195,0.2056,0.2124,0.2228,0.2306,0.2324,0.2329,0.2417,0.2267,0.2256,0.233,0.2321,0.2321,0.231,0.2413,0.2412,0.2412,0.2411,0,0.1179,0.1254,0.132,0.1439,0.148,0.1536,0.1682,0.1738,0.187,0.1975,0.2024,0.2169,0.2259,0.2342,0.2422,0.2367,0.2379,0.2357,0.2446,0.2437,0.2199,0.2189,0.2243,0.2239,0.2236,0.2233,0.2231,0,0.115,0.1181,0.131,0.1354,0.1418,0.1516,0.1578,0.172,0.1784,0.1978,0.2015,0.2166,0.2242,0.2261,0.2343,0.2373,0.2347,0.2334,0.2245,0.22,0.2185,0.218,0.2175,0.2226,0.2225,0.2224,0.2223,0,0.1093,0.1155,0.1208,0.1296,0.1373,0.1442,0.1548,0.1586,0.1745,0.1883,0.1961,0.202,0.2121,0.2175,0.2229,0.2238,0.2325,0.2299,0.2305,0.2221,0.218,0.2166,0.2165,0.2212,0.2214,0.2215,0.2215,0,0.1051,0.1073,0.1154,0.1224,0.1305,0.1345,0.1414,0.1494,0.1577,0.1788,0.1806,0.1962,0.2094,0.2108,0.2151,0.2161,0.2117,0.2033,0.2051,0.2065,0.197,0.1889,0.1832,0,0,0,0,0,0.1001,0.1022,0.1075,0.114,0.1213,0.1267,0.1379,0.1451,0.1605,0.1614,0.1709,0.1789,0.1864,0.1943,0.1918,0.2071,0.2124,0.2031,0.2035,0.215,0.2163,0.2068,0,0,0,0,0,0,0.097,0.1018,0.1041,0.1053,0.1083,0.1151,0.122,0.1325,0.1341,0.1505,0.1555,0.168,0.178,0.1864,0.1884,0.1909,0.1874,0.213,0.2126,0.2142,0.2154,0.2165,0.2072,0,0,0,0,0]},{"header":{"parameterUnit":"m.s-1","parameterCategory":2,"la1":30.2991,"la2":30.254,"lo1":-89.0895,"lo2":-89.0444,"dy":0.0017,"dx":0.0017,"nx":28,"ny":28,"refTime":"2023-09-05T21:00:00:Z","depth":"4","parameterNumber":3,"parameterNumberName":"V-component_of_CURRENTS"},"data":[0,0,0,0,0,0,0,0,0,0,0,0,0,0,0,0,0,0,0,0,0,0,0,0,0,0,0,0,0,0,0,0,0,0,0,0,0,0,0,0,0,0,0,0,0,0,0,0,0,0,0,0,0,0,0,0,0,0,0.0183,0.0183,0,0.0142,0.0141,0.0141,0.0107,0.0107,0.0106,0.0106,0.0057,0.0056,0.0055,0,0,0,0,0,0,0,0,0,0,0,0,0,0.0205,0.0205,0.0183,0.0183,0.0182,0.0142,0.0141,0.0141,0.0107,0.0107,0.0106,0.0106,0.0057,0.0056,0.0055,0,0,0,0,0,0,0,0,0,0,0,0,0,0.0183,0.0205,0.0183,0.016,0.0158,0.0142,0.0141,0.0141,0.0107,0.0107,0.0106,0.0106,0.0058,0.0056,0.0055,0.0056,0,0,0.005,0.005,0,0,0,0,0,0,0,0,0.0184,0.0182,0.0164,0.0162,0.0159,0.0129,0.0131,0.0112,0.0107,0.0126,0.0106,0.0105,0.0081,0.0078,0.0071,0.0054,0.0052,0.005,0.0049,0.0049,0.0048,0,0,0,0,0,0,0,0.0186,0.0183,0.0167,0.0164,0.0161,0.0143,0.014,0.0127,0.0107,0.0125,0.0122,0.0118,0.0079,0.0072,0.007,0.0051,0.005,0.0049,0.0048,0.0048,0.002,0.002,0,0,0,0,0,0,0.0193,0.0185,0.0168,0.0165,0.0171,0.0143,0.0139,0.0139,0.0107,0.0102,0.0118,0.0117,0.0075,0.0071,0.0068,0.007,0.0049,0.0047,0.0047,0.002,0.002,0.002,0,0,0,0,0,0,0.0194,0.0192,0.017,0.0174,0.017,0.0144,0.0144,0.0139,0.0133,0.0102,0.0097,0.0118,0.0075,0.007,0.0062,0.0068,0.0047,0.0045,0.002,0.002,0.002,0.0074,0,0,0,0,0,0,0.0195,0.0193,0.0198,0.0175,0.017,0.0168,0.0144,0.0138,0.0131,0.0128,0.01,0.0095,0.0074,0.0064,0.006,0.0066,0.0044,0.0019,0.002,0.002,0.0072,0.0076,0.0079,0,0,0,0,0,0.0196,0.021,0.0199,0.0197,0.0177,0.0169,0.0165,0.0144,0.0132,0.0135,0.0115,0.0096,0.0063,0.0064,0.0059,0.0064,0.0019,0.002,0.002,0.007,0.0075,0.0079,0,0,0,0,0,0,0.0223,0.0207,0.0195,0.0203,0.0189,0.0163,0.0166,0.0149,0.0136,0.0134,0.0103,0.0097,0.0091,0.007,0.0072,0.0055,0.0036,0.0035,0.0076,0.008,0.0084,0.0097,0.0043,0,0,0,0,0,0.0231,0.0237,0.0215,0.0222,0.0218,0.0192,0.0187,0.0172,0.0155,0.0148,0.0128,0.0105,0.0088,0.008,0.0063,0.0058,0.0029,0.0056,0.0059,0.0063,0.0069,0.0027,0.0027,0.0021,0.0021,0.0021,0,0,0.0245,0.0235,0.0239,0.0228,0.0215,0.0218,0.0188,0.0185,0.0186,0.0146,0.0146,0.012,0.009,0.0084,0.0079,0.0068,0.0049,0.0063,0.0066,0.0071,0.0027,0.0028,0.0028,0.0021,0.0021,0.0021,0,0,0.0272,0.0265,0.0277,0.0269,0.0254,0.0241,0.0243,0.0221,0.0212,0.0207,0.0176,0.0155,0.0134,0.011,0.0096,0.011,0.0072,0.0103,0.0132,0.0091,0.0091,0.0091,0.0058,0.0054,0.0103,0.0104,0.0104,0,0.0287,0.0296,0.0279,0.0285,0.0285,0.0255,0.0267,0.0257,0.0234,0.023,0.0215,0.0174,0.0146,0.0132,0.0134,0.0119,0.0092,0.012,0.0097,0.0096,0.0095,0.006,0.0056,0.0106,0.0106,0.0106,0.0105,0,0.0315,0.0324,0.0333,0.0331,0.0331,0.0337,0.032,0.0319,0.0304,0.0285,0.0269,0.0229,0.0202,0.0187,0.0166,0.0147,0.0129,0.0108,0.0088,0.0099,0.0062,0.0056,0.011,0.0109,0.0108,0.0108,0,0,0.0339,0.0351,0.0353,0.0365,0.0356,0.0361,0.037,0.0366,0.0372,0.0342,0.034,0.0301,0.027,0.0252,0.0216,0.0179,0.0145,0.0146,0.0143,0.0119,0.006,0.0049,0.0042,0.0119,0.0119,0.0118,0.0038,0,0.0364,0.0395,0.039,0.0421,0.0436,0.0421,0.0435,0.0427,0.0411,0.0403,0.0354,0.0339,0.0298,0.0284,0.0242,0.017,0.0132,0.0169,0.0048,0.0045,0.0038,0.0035,0.0116,0.0034,0.0032,0.0031,0.0031,0,0.0386,0.0406,0.0444,0.0472,0.0478,0.0493,0.0508,0.0516,0.0495,0.0479,0.0447,0.0408,0.0356,0.0317,0.0202,0.0229,0.0153,0.0093,0.0088,0.0056,0.0024,0.0018,0.0019,0.002,0.0021,0.0022,0.0023,0,0.041,0.0442,0.0478,0.0485,0.0511,0.053,0.0544,0.054,0.0555,0.0526,0.0526,0.0454,0.0421,0.032,0.0199,0.0198,0.0067,0.0046,-0.0034,-0.0036,-0.0026,-0.0025,-0.0037,-0.0037,-0.0037,-0.0036,-0.0036,0,0.0431,0.046,0.0497,0.0517,0.0568,0.0569,0.0613,0.0612,0.0615,0.0633,0.0569,0.0559,0.0419,0.033,0.0214,0.0075,0.0074,-0.0028,-0.0058,-0.0001,0.0003,-0.003,-0.0029,-0.0039,-0.0039,-0.0038,-0.0038,0,0.0445,0.0468,0.0515,0.056,0.0582,0.0617,0.0672,0.0696,0.0693,0.0713,0.0709,0.0632,0.0509,0.0367,0.0193,0.01,-0.0037,-0.0087,-0.0008,-0.0033,-0.0115,-0.0109,-0.0181,-0.0182,-0.0183,-0.0184,-0.0185,0,0.0454,0.0481,0.0552,0.0589,0.0613,0.0669,0.071,0.0733,0.076,0.0757,0.0766,0.0668,0.0594,0.0351,0.019,-0.0032,-0.0066,-0.0133,-0.013,-0.0108,-0.013,-0.0123,-0.0117,-0.0186,-0.0186,-0.0186,-0.0187,0,0.0471,0.0497,0.0537,0.0618,0.0673,0.0739,0.0797,0.0824,0.0844,0.0847,0.0806,0.0686,0.0546,0.0351,0.0177,0.0018,-0.0087,-0.0143,-0.0143,-0.014,-0.0114,-0.0134,-0.0127,-0.019,-0.0189,-0.0189,-0.0189,0,0.0482,0.0511,0.0568,0.0636,0.0713,0.0781,0.0814,0.0843,0.0872,0.0866,0.0848,0.0701,0.0615,0.0377,0.0218,0.0057,0.0014,-0.0035,-0.0041,-0.0039,0.0022,0.0077,0.0035,0,0,0,0,0,0.0485,0.0517,0.0582,0.0655,0.0732,0.0781,0.0859,0.0882,0.0907,0.0885,0.0869,0.0738,0.0502,0.0402,0.0238,0.0189,-0.002,-0.0009,-0.0081,-0.0207,-0.0203,-0.0157,0,0,0,0,0,0,0.0486,0.0541,0.0574,0.0661,0.0712,0.08,0.0853,0.0873,0.0862,0.0862,0.0739,0.0689,0.0458,0.0587,0.0229,0.0182,0.0113,-0.0115,-0.0119,-0.0209,-0.0206,-0.0203,-0.0154,0,0,0,0,0]}]]